| time (UTC) | temp C | wind direction | speed KPH | gust KPH | rain 1hr cm | rain 24hr cm | rain mn cm | humidity % | barometer mb |
| 20260506234552 | 10 | 284 | 4.8 | 9.7 | 0.00 | 0.00 | 0.00 | 71 | 1023.9 |
| 20260506233045 | 10 | 223 | 3.2 | 11.3 | 0.00 | 0.00 | 0.00 | 70 | 1023.9 |
| 20260506231537 | 10 | 266 | 4.8 | 11.3 | 0.00 | 0.00 | 0.00 | 69 | 1023.8 |
| 20260506230045 | 10 | 306 | 6.4 | 14.5 | 0.00 | 0.00 | 0.00 | 70 | 1023.8 |
| 20260506224549 | 10 | 263 | 6.4 | 17.7 | 0.00 | 0.00 | 0.00 | 69 | 1023.7 |
| 20260506223042 | 10 | 223 | 6.4 | 12.9 | 0.00 | 0.00 | 0.00 | 66 | 1023.6 |
| 20260506221542 | 10 | 317 | 6.4 | 12.9 | 0.00 | 0.00 | 0.00 | 63 | 1023.5 |
| 20260506220048 | 10 | 265 | 4.8 | 12.9 | 0.00 | 0.00 | 0.00 | 64 | 1023.5 |
| 20260506214539 | 10 | 200 | 4.8 | 12.9 | 0.00 | 0.00 | 0.00 | 62 | 1023.4 |
| 20260506213042 | 10 | 277 | 6.4 | 12.9 | 0.00 | 0.00 | 0.00 | 63 | 1023.5 |
| 20260506211554 | 10 | 229 | 4.8 | 12.9 | 0.00 | 0.00 | 0.00 | 62 | 1023.4 |
| 20260506210043 | 11 | 236 | 3.2 | 9.7 | 0.00 | 0.00 | 0.00 | 59 | 1023.2 |
| 20260506204542 | 10 | 300 | 3.2 | 8.0 | 0.00 | 0.00 | 0.00 | 59 | 1023.1 |
| 20260506203047 | 11 | 315 | 3.2 | 6.4 | 0.00 | 0.00 | 0.00 | 61 | 1022.9 |
| 20260506201545 | 10 | 284 | 1.6 | 6.4 | 0.00 | 0.00 | 0.00 | 59 | 1022.8 |
| 20260506200042 | 11 | 327 | 1.6 | 6.4 | 0.00 | 0.00 | 0.00 | 62 | 1022.9 |
| 20260506194546 | 11 | 287 | 0.0 | 11.3 | 0.00 | 0.00 | 0.00 | 62 | 1022.8 |
| 20260506193045 | 11 | 271 | 3.2 | 11.3 | 0.00 | 0.00 | 0.00 | 61 | 1022.8 |
| 20260506191536 | 10 | 294 | 4.8 | 11.3 | 0.00 | 0.00 | 0.00 | 64 | 1022.7 |
| 20260506190043 | 10 | 15 | 4.8 | 11.3 | 0.00 | 0.00 | 0.00 | 66 | 1022.6 |
| 20260506184543 | 10 | 331 | 1.6 | 8.0 | 0.00 | 0.00 | 0.00 | 67 | 1022.5 |
| 20260506183041 | 10 | 306 | 1.6 | 6.4 | 0.00 | 0.00 | 0.00 | 65 | 1022.4 |
| 20260506181547 | 9 | 290 | 3.2 | 6.4 | 0.00 | 0.00 | 0.00 | 67 | 1022.4 |
| 20260506180048 | 9 | 293 | 3.2 | 8.0 | 0.00 | 0.00 | 0.00 | 66 | 1022.5 |
| 20260506174542 | 9 | 297 | 1.6 | 4.8 | 0.00 | 0.00 | 0.00 | 68 | 1022.5 |
| 20260506173105 | 9 | 294 | 1.6 | 4.8 | 0.00 | 0.00 | 0.00 | 67 | 1022.4 |
| 20260506171553 | 10 | 275 | 1.6 | 8.0 | 0.00 | 0.00 | 0.00 | 68 | 1022.4 |
| 20260506170044 | 9 | 360 | 1.6 | 8.0 | 0.00 | 0.00 | 0.00 | 70 | 1022.4 |
| 20260506164539 | 8 | 274 | 1.6 | 6.4 | 0.00 | 0.00 | 0.00 | 72 | 1022.4 |
| 20260506163035 | 8 | 284 | 0.0 | 6.4 | 0.00 | 0.00 | 0.00 | 72 | 1022.4 |
| 20260506161543 | 8 | 0 | 0.0 | 4.8 | 0.00 | 0.00 | 0.00 | 72 | 1022.2 |
| 20260506160052 | 8 | 301 | 3.2 | 9.7 | 0.00 | 0.00 | 0.00 | 73 | 1022.1 |
| 20260506154544 | 7 | 342 | 4.8 | 11.3 | 0.00 | 0.00 | 0.00 | 72 | 1022.0 |
| 20260506153043 | 7 | 266 | 1.6 | 9.7 | 0.00 | 0.00 | 0.00 | 75 | 1021.9 |
| 20260506151545 | 7 | 323 | 3.2 | 6.4 | 0.00 | 0.00 | 0.00 | 75 | 1021.8 |
| 20260506150049 | 7 | 336 | 4.8 | 12.9 | 0.00 | 0.00 | 0.00 | 75 | 1021.8 |
| 20260506144545 | 7 | 289 | 4.8 | 19.3 | 0.00 | 0.00 | 0.00 | 75 | 1021.7 |
| 20260506143039 | 7 | 308 | 4.8 | 14.5 | 0.00 | 0.00 | 0.00 | 75 | 1021.5 |
| 20260506141540 | 7 | 327 | 6.4 | 16.1 | 0.00 | 0.00 | 0.00 | 75 | 1021.5 |
| 20260506140043 | 7 | 283 | 1.6 | 12.9 | 0.00 | 0.00 | 0.00 | 76 | 1021.4 |
| 20260506134547 | 7 | 0 | 1.6 | 14.5 | 0.00 | 0.00 | 0.00 | 75 | 1021.2 |
| 20260506133040 | 7 | 331 | 4.8 | 12.9 | 0.00 | 0.00 | 0.00 | 75 | 1021.0 |
| 20260506131547 | 7 | 287 | 4.8 | 11.3 | 0.00 | 0.00 | 0.00 | 76 | 1020.8 |
| 20260506130040 | 7 | 279 | 3.2 | 12.9 | 0.00 | 0.00 | 0.00 | 76 | 1020.7 |
| 20260506124535 | 7 | 5 | 1.6 | 8.0 | 0.00 | 0.00 | 0.00 | 76 | 1020.8 |
| 20260506123043 | 7 | 273 | 3.2 | 12.9 | 0.00 | 0.00 | 0.00 | 77 | 1020.7 |
| 20260506121543 | 7 | 292 | 1.6 | 4.8 | 0.00 | 0.00 | 0.00 | 79 | 1020.6 |
| 20260506120036 | 7 | 282 | 1.6 | 12.9 | 0.00 | 0.00 | 0.00 | 79 | 1020.5 |
| 20260506114539 | 7 | 0 | 0.0 | 8.0 | 0.00 | 0.00 | 0.00 | 79 | 1020.4 |
| 20260506113042 | 7 | 302 | 1.6 | 9.7 | 0.00 | 0.00 | 0.00 | 78 | 1020.2 |
| 20260506111538 | 7 | 312 | 3.2 | 12.9 | 0.00 | 0.00 | 0.00 | 78 | 1020.2 |
| 20260506110042 | 7 | 312 | 3.2 | 11.3 | 0.00 | 0.00 | 0.00 | 78 | 1020.0 |
| 20260506104536 | 7 | 311 | 4.8 | 9.7 | 0.00 | 0.00 | 0.00 | 78 | 1020.0 |
| 20260506103041 | 7 | 296 | 1.6 | 8.0 | 0.00 | 0.00 | 0.00 | 79 | 1020.0 |
| 20260506101536 | 7 | 249 | 4.8 | 8.0 | 0.00 | 0.00 | 0.00 | 80 | 1020.0 |
| 20260506100042 | 7 | 321 | 1.6 | 6.4 | 0.00 | 0.00 | 0.00 | 81 | 1020.0 |
| 20260506094554 | 7 | 0 | 1.6 | 8.0 | 0.00 | 0.00 | 0.00 | 82 | 1019.9 |
| 20260506093044 | 7 | 0 | 1.6 | 4.8 | 0.00 | 0.00 | 0.00 | 82 | 1019.7 |
| 20260506091537 | 7 | 288 | 0.0 | 4.8 | 0.00 | 0.00 | 0.00 | 82 | 1019.6 |
| 20260506090045 | 7 | 297 | 3.2 | 8.0 | 0.00 | 0.00 | 0.00 | 81 | 1019.6 |
| 20260506084611 | 7 | 326 | 1.6 | 6.4 | 0.00 | 0.00 | 0.00 | 80 | 1019.6 |
| 20260506083046 | 7 | 317 | 1.6 | 6.4 | 0.00 | 0.00 | 0.00 | 79 | 1019.6 |
| 20260506081540 | 7 | 329 | 3.2 | 9.7 | 0.00 | 0.00 | 0.00 | 77 | 1019.5 |
| 20260506073043 | 7 | 297 | 1.6 | 6.4 | 0.00 | 0.00 | 0.00 | 75 | 1019.1 |
| 20260506071545 | 7 | 5 | 1.6 | 11.3 | 0.00 | 0.00 | 0.00 | 74 | 1018.9 |
| 20260506061545 | 8 | 266 | 4.8 | 16.1 | 0.00 | 0.00 | 0.00 | 72 | 1019.0 |
| 20260506044536 | 9 | 314 | 4.8 | 17.7 | 0.00 | 0.00 | 0.00 | 69 | 1018.2 |
| 20260506043043 | 10 | 272 | 4.8 | 17.7 | 0.00 | 0.00 | 0.00 | 67 | 1017.9 |
| 20260506041537 | 10 | 299 | 4.8 | 17.7 | 0.00 | 0.00 | 0.00 | 67 | 1017.8 |
| 20260506040037 | 10 | 298 | 4.8 | 12.9 | 0.00 | 0.00 | 0.00 | 65 | 1017.4 |
| 20260506034543 | 11 | 350 | 3.2 | 16.1 | 0.00 | 0.00 | 0.00 | 65 | 1017.0 |
| 20260506033042 | 11 | 323 | 1.6 | 11.3 | 0.00 | 0.00 | 0.00 | 61 | 1016.8 |
| 20260506031537 | 12 | 267 | 3.2 | 9.7 | 0.00 | 0.00 | 0.00 | 60 | 1016.7 |
| 20260506030038 | 12 | 269 | 3.2 | 8.0 | 0.00 | 0.00 | 0.00 | 59 | 1016.5 |
| 20260506024545 | 13 | 202 | 1.6 | 12.9 | 0.00 | 0.00 | 0.00 | 57 | 1016.4 |
| 20260506023044 | 13 | 271 | 1.6 | 14.5 | 0.00 | 0.00 | 0.00 | 54 | 1016.2 |
| 20260506021541 | 13 | 232 | 4.8 | 8.0 | 0.00 | 0.00 | 0.00 | 54 | 1016.2 |
| 20260506020039 | 13 | 314 | 4.8 | 16.1 | 0.00 | 0.00 | 0.00 | 56 | 1016.2 |
| 20260506014538 | 14 | 233 | 4.8 | 11.3 | 0.00 | 0.00 | 0.00 | 54 | 1015.9 |
| 20260506013043 | 15 | 214 | 4.8 | 12.9 | 0.00 | 0.00 | 0.00 | 53 | 1015.7 |
| 20260506011540 | 15 | 240 | 3.2 | 12.9 | 0.00 | 0.00 | 0.00 | 55 | 1015.7 |
| 20260506010038 | 15 | 196 | 4.8 | 12.9 | 0.00 | 0.00 | 0.00 | 56 | 1015.7 |
| 20260506004537 | 15 | 221 | 6.4 | 16.1 | 0.00 | 0.00 | 0.00 | 57 | 1015.7 |
| 20260506003038 | 15 | 257 | 6.4 | 17.7 | 0.00 | 0.00 | 0.00 | 57 | 1015.7 |
| 20260506001542 | 16 | 293 | 8.0 | 14.5 | 0.00 | 0.00 | 0.00 | 54 | 1015.7 |
| 20260506000042 | 16 | 269 | 4.8 | 14.5 | 0.00 | 0.00 | 0.00 | 54 | 1015.6 |